Wind_Speed
46 45 45 45 44 42 40 38 37 36 36 36 37 37 38 39 40 41 41 41 41 42 42 41 41 41 41 41 41 41 41 41 41 41 42 41 41 41 41 40 40 39 39 39 38 38 38 38 38 38 38 39 39 39 39 39 39 40 40 40 41 42 42 43 44 44 44 44 44 43 43 43 43 42 41 40 39 38 38 37 37 37 37 37 37 38
44 43 43 43 43 42 40 38 37 36 36 36 36 37 38 39 40 41 41 41 41 42 42 41 41 42 42 42 41 41 41 41 41 41 41 41 41 41 41 40 40 40 39 39 38 38 38 38 38 38 38 38 38 38 38 39 39 39 40 41 42 42 43 44 44 44 44 43 43 43 43 43 42 42 41 40 38 38 37 37 37 37 37 37 37 38
42 41 41 41 41 41 40 39 38 37 37 36 37 37 38 39 40 41 41 41 42 42 42 42 42 42 42 42 42 42 41 41 41 41 41 41 41 41 41 41 40 40 39 39 38 38 38 38 37 38 38 38 38 38 38 39 39 40 40 41 42 43 44 44 44 44 43 43 43 43 43 43 42 41 40 39 38 37 37 37 37 37 37 37 37 38
42 41 40 40 40 40 39 38 38 38 38 37 38 38 39 40 40 41 41 41 42 42 42 42 42 43 43 43 43 42 42 42 42 41 41 41 41 41 41 41 41 40 39 39 38 38 37 37 37 38 38 38 38 38 39 39 39 40 41 42 43 44 44 44 44 43 43 43 44 44 43 43 42 41 40 39 38 38 37 37 37 37 38 38 38 38
44 43 42 41 40 39 38 38 38 38 38 38 38 39 39 40 40 41 41 42 42 42 43 43 43 44 44 44 44 43 42 42 42 41 41 41 41 41 41 41 41 40 39 39 38 37 37 37 37 38 38 38 38 38 39 39 40 41 42 43 43 44 44 44 43 43 43 44 44 44 43 42 41 40 40 39 38 38 38 38 38 38 38 39 39 39
45 45 45 45 44 42 40 38 37 37 37 38 38 39 39 40 41 41 42 42 43 43 43 44 44 45 45 45 45 44 43 42 42 41 41 41 41 41 41 41 40 40 39 38 38 37 37 37 37 38 38 38 38 39 39 40 40 41 42 43 44 44 43 43 43 43 44 44 44 44 43 42 41 41 40 39 39 39 39 39 39 39 39 39 40 40
45 45 46 47 46 44 43 41 39 38 37 37 38 38 39 40 41 42 42 43 43 43 44 44 45 46 46 46 45 44 43 42 41 41 41 41 41 41 41 41 40 40 39 38 38 37 37 37 38 38 38 38 38 39 39 40 41 42 42 43 43 43 43 43 43 43 44 44 44 44 43 42 42 41 41 40 40 40 40 40 40 40 40 40 40 41
45 46 46 47 46 45 44 43 42 40 39 38 38 39 39 41 41 42 42 43 43 44 44 45 45 46 46 46 45 44 42 41 41 40 40 40 41 41 41 40 40 39 39 38 38 38 38 38 38 38 38 38 38 39 39 40 41 42 43 43 43 43 42 43 43 43 44 44 44 44 43 43 42 42 41 41 41 41 41 40 40 41 41 41 41 41
46 47 46 45 45 44 44 44 43 42 42 41 40 40 41 41 42 42 43 43 43 44 44 45 45 45 45 45 44 43 42 41 41 40 40 40 41 41 40 40 40 39 39 38 38 38 38 38 38 38 38 38 39 39 40 41 42 42 43 43 42 42 42 42 42 43 44 44 44 44 43 43 43 42 42 42 42 41 41 41 41 42 42 42 42 42
47 46 44 44 44 44 44 44 44 44 44 43 43 43 42 43 43 43 43 44 44 44 44 44 45 45 44 44 43 42 42 41 41 41 40 40 40 40 40 40 40 39 39 38 38 38 38 38 38 38 38 38 39 39 40 41 42 42 42 42 41 41 41 42 42 43 43 44 44 44 43 43 43 43 43 43 42 42 42 42 42 43 43 43 43 43
45 43 42 43 44 45 46 45 45 45 45 45 45 45 44 44 45 44 44 44 44 43 44 44 44 44 43 43 42 42 42 41 41 41 41 40 40 40 40 40 40 39 39 39 38 38 38 38 38 38 38 38 39 39 40 41 42 42 42 41 40 40 40 41 42 43 43 43 43 43 43 43 43 43 43 43 43 44 44 44 44 44 45 45 45 45
44 42 42 44 45 46 46 46 46 46 46 46 46 45 45 45 45 45 44 43 43 42 42 43 44 44 43 42 42 42 42 42 41 41 41 40 40 40 40 40 40 39 39 39 38 38 38 38 38 38 38 38 39 40 40 41 41 41 40 40 39 39 40 41 42 42 43 43 43 43 43 43 43 43 44 44 44 45 45 46 46 46 47 47 48 48
45 43 44 45 46 46 45 45 45 46 46 45 45 45 44 44 44 43 43 42 41 41 42 42 43 44 44 43 42 42 42 42 41 41 41 40 40 40 40 40 40 40 39 39 39 38 38 38 38 38 38 38 39 40 40 41 41 40 39 39 38 39 40 41 41 42 42 42 42 42 42 42 43 43 44 44 45 45 46 47 48 48 49 50 51 51
47 46 46 47 46 45 44 43 43 44 44 44 44 43 42 42 42 41 41 41 41 41 41 42 43 44 44 43 42 42 41 41 41 41 41 40 40 39 39 40 40 40 39 39 38 38 38 38 38 38 38 38 39 39 40 40 40 39 38 38 38 39 39 40 41 41 41 41 41 41 42 42 42 43 44 44 45 46 47 48 49 50 51 52 53 53
49 48 48 47 46 44 42 41 40 40 40 41 41 41 41 41 40 40 40 40 40 40 41 42 43 44 44 43 42 41 41 41 41 41 40 40 39 39 39 40 40 40 39 39 38 38 37 38 38 37 37 38 38 39 39 39 39 38 38 38 38 38 39 40 40 40 40 40 41 41 41 42 42 43 44 44 45 46 47 48 49 50 52 53 54 55
49 49 49 47 45 43 41 39 38 37 37 38 38 39 39 39 39 39 39 39 39 40 41 42 43 43 43 42 41 40 40 40 40 40 40 40 39 39 39 40 40 40 39 39 38 38 37 37 37 37 37 38 38 39 39 39 38 38 37 37 38 38 39 39 39 39 39 40 40 41 41 42 42 43 44 44 45 46 47 48 49 51 52 53 54 55
49 49 48 46 44 41 39 38 37 36 36 36 37 37 37 37 37 38 38 38 39 40 41 42 42 42 42 41 40 39 39 39 39 40 40 40 39 39 39 40 40 40 39 38 38 37 37 37 37 37 37 38 38 38 39 38 38 37 37 37 38 38 38 38 38 38 39 39 40 40 41 41 42 43 44 44 45 46 47 48 50 51 52 53 54 56
49 48 47 45 43 40 39 37 36 36 36 36 35 35 35 36 36 36 37 38 39 39 40 41 42 42 41 40 39 38 37 37 39 40 40 40 39 39 39 40 40 40 39 38 37 37 37 37 37 37 37 37 38 38 38 38 37 37 37 37 38 38 38 37 37 37 38 39 40 40 41 42 42 43 44 45 46 47 48 49 50 51 52 54 55 56
49 48 47 44 42 40 38 37 36 36 35 35 35 34 34 34 35 36 37 38 39 39 40 40 41 41 41 39 38 36 36 37 38 40 40 40 40 39 39 39 39 39 38 37 37 36 36 37 37 37 37 37 37 37 37 37 37 37 37 37 38 37 37 36 36 37 37 38 39 40 41 42 43 43 44 45 46 47 48 49 51 52 53 54 55 57
49 48 46 44 42 39 38 36 35 35 35 35 35 34 33 33 34 35 36 37 38 39 39 40 40 40 39 38 36 35 36 37 39 40 41 41 40 39 39 39 39 39 38 37 36 36 36 37 37 37 37 37 36 36 36 36 36 36 37 37 37 37 36 35 35 36 37 38 39 40 41 42 43 44 45 45 46 47 49 50 51 53 54 55 56 57
49 48 46 44 41 39 37 35 34 34 34 35 35 34 33 33 33 34 36 36 37 38 39 39 39 39 38 36 36 36 37 38 39 41 41 41 40 39 38 38 38 38 38 37 36 36 36 37 37 37 36 36 36 35 35 35 36 36 37 37 36 36 35 35 35 35 36 37 39 40 41 42 43 44 45 46 47 48 49 50 52 53 54 55 56 57
50 48 46 44 42 39 37 34 33 33 34 35 35 34 33 33 33 34 35 36 37 38 38 39 38 38 37 37 37 37 38 39 40 40 41 41 40 38 37 37 37 38 37 36 36 36 36 37 37 36 36 35 35 35 35 35 36 36 36 36 36 35 35 34 34 34 35 37 38 40 41 43 43 44 45 46 47 48 49 50 51 53 54 55 56 57
51 49 48 46 43 40 37 34 32 32 33 34 34 34 33 32 32 33 34 35 36 37 38 38 38 38 38 38 38 38 38 39 39 40 40 40 39 38 36 36 37 37 37 36 36 36 37 37 37 36 36 35 34 34 34 35 35 36 36 36 35 35 34 34 34 34 35 37 38 40 41 43 44 44 45 46 47 48 49 50 51 52 53 55 56 57
52 50 49 47 45 42 39 35 33 32 32 33 33 33 33 32 33 33 34 36 37 38 38 39 39 39 40 39 39 38 38 38 38 39 39 40 39 37 36 36 36 37 37 36 36 37 37 37 37 36 35 35 34 34 34 35 35 35 35 35 35 34 34 34 34 34 35 37 38 40 41 43 44 44 45 46 46 47 48 49 51 52 53 54 55 56
53 51 50 48 47 44 41 38 34 32 32 32 33 33 33 33 34 35 36 37 38 38 39 40 40 40 40 40 39 38 37 36 37 37 38 39 38 37 35 35 36 37 37 37 37 37 38 38 37 36 36 35 34 34 34 34 35 35 35 34 34 34 33 33 34 35 36 37 39 40 41 42 43 44 45 45 46 47 48 49 50 52 53 54 55 56
53 52 51 49 47 45 43 40 37 34 32 32 33 33 33 34 35 36 37 38 39 39 40 40 41 41 40 39 38 37 36 35 36 36 37 37 37 36 35 35 36 37 37 37 37 38 38 38 37 36 36 35 34 34 34 34 35 34 34 34 33 33 33 33 34 35 36 38 39 40 41 42 43 44 44 45 46 47 48 49 50 51 52 53 54 55
51 51 50 49 48 46 44 41 39 36 34 33 33 33 34 35 36 38 39 39 40 40 40 40 41 41 40 39 38 37 35 35 35 35 36 36 37 36 36 35 35 36 37 38 38 38 38 38 38 37 36 35 35 34 34 34 34 34 34 33 33 33 33 34 34 35 37 38 39 40 41 42 43 43 44 45 46 47 48 49 50 51 52 53 54 54
48 48 48 48 48 46 44 42 40 38 36 35 34 35 35 37 38 39 40 40 39 39 40 40 40 40 39 38 37 36 35 35 35 35 35 36 36 36 35 35 36 37 38 38 39 39 39 39 38 37 36 35 35 35 35 34 34 34 34 33 33 33 33 34 35 36 37 38 39 40 41 42 43 43 44 45 46 47 48 49 50 51 52 52 53 53
47 46 46 46 46 46 45 44 42 39 37 37 36 36 37 39 40 40 40 40 39 39 40 40 40 39 38 37 36 36 35 35 34 34 34 35 36 36 35 35 36 37 38 39 39 40 39 39 38 37 36 36 35 35 34 34 34 34 34 34 33 33 34 34 35 36 37 38 39 40 41 42 42 43 44 45 46 47 48 49 50 51 52 52 52 52
46 45 45 44 45 45 45 44 43 41 39 39 39 39 39 40 41 41 40 40 40 40 40 40 39 38 37 36 35 35 35 34 33 32 33 34 35 36 35 35 36 37 38 39 39 40 40 39 37 36 36 35 35 35 35 34 34 34 34 34 34 34 34 34 35 36 37 38 39 40 41 41 42 43 44 44 45 46 47 48 50 51 51 51 51 50
45 45 44 44 43 44 44 44 44 43 42 41 41 41 41 41 41 41 42 42 41 41 40 39 38 36 35 35 35 35 35 33 32 31 32 34 35 35 35 35 36 37 37 38 39 40 40 39 37 36 35 35 35 35 35 35 35 35 35 35 35 34 34 35 35 36 37 38 39 40 40 41 42 42 43 44 45 46 47 48 49 50 51 51 50 49
44 44 44 43 43 43 43 44 44 44 43 43 43 43 43 42 42 42 43 43 43 42 40 38 37 36 35 35 35 35 34 32 30 30 31 33 34 35 35 35 36 37 37 38 39 40 40 39 37 35 35 35 35 35 35 35 36 36 36 36 36 35 35 35 36 36 37 38 39 39 40 40 41 42 43 44 45 46 47 48 49 49 50 50 49 48
43 43 44 43 43 43 43 43 43 44 44 45 45 46 45 43 42 43 44 44 44 42 40 38 37 36 35 35 35 35 33 31 30 30 30 32 33 34 35 35 36 36 37 38 39 39 39 39 37 36 35 35 35 36 36 36 36 36 36 37 37 36 35 35 36 36 37 38 39 39 40 40 41 42 43 44 45 46 47 47 48 48 48 48 48 47
41 42 42 43 43 43 43 43 43 44 45 46 47 47 47 45 43 43 44 45 44 42 40 38 36 36 35 35 35 34 32 30 29 29 30 31 33 34 34 35 36 36 37 38 38 39 39 38 37 36 36 36 36 36 36 36 36 37 37 37 37 37 36 36 36 37 37 38 39 39 40 40 41 42 43 44 45 46 47 47 48 47 47 47 47 47
39 40 40 41 42 43 43 44 44 45 45 46 47 48 48 46 44 44 44 44 44 42 40 38 36 35 35 34 34 33 31 30 29 29 30 32 33 34 35 36 36 36 37 37 38 38 38 38 38 37 37 37 37 37 37 37 37 37 38 38 38 38 37 36 36 37 37 38 39 39 40 41 42 43 44 45 46 46 47 47 47 47 46 45 45 45
38 39 39 40 41 42 43 44 45 45 45 46 47 48 48 46 44 43 43 43 42 40 38 36 35 34 33 33 33 32 31 30 30 31 32 34 35 35 36 36 36 36 37 38 38 39 39 39 38 38 38 39 39 38 37 37 38 38 39 39 38 38 37 37 36 37 37 38 39 39 40 41 42 44 45 45 46 47 47 47 47 46 45 44 44 43
38 38 39 40 41 42 43 43 44 44 43 44 44 45 46 44 42 41 41 40 39 37 35 34 33 32 31 31 31 31 31 31 31 33 34 36 36 37 37 37 37 37 37 38 39 39 39 39 39 39 39 40 40 40 39 39 39 39 39 39 39 38 37 37 36 37 38 38 39 40 40 42 43 44 45 46 47 47 47 47 47 46 45 44 43 41
37 37 38 39 40 40 41 41 41 40 40 40 40 41 42 41 39 37 37 37 36 35 33 32 31 31 31 31 31 32 32 33 34 35 36 37 37 38 38 37 37 37 37 38 39 39 40 40 40 39 39 40 40 40 40 40 40 40 40 39 39 38 37 37 37 37 38 38 39 40 41 42 43 45 46 47 47 48 48 48 47 46 45 44 42 41
35 36 37 37 37 37 37 37 36 36 35 35 35 35 36 35 35 34 34 34 34 33 32 31 31 31 31 32 33 34 34 35 36 36 37 37 38 38 38 38 38 38 38 39 39 40 40 40 40 40 40 41 41 41 41 41 41 41 40 40 39 38 37 37 37 37 38 39 39 40 41 42 43 45 46 47 47 48 48 48 47 46 45 44 43 41
34 35 35 34 34 34 34 33 32 31 31 30 29 29 30 31 31 32 32 32 32 32 31 31 31 32 33 34 35 35 36 36 37 37 37 37 38 38 38 38 38 38 38 39 40 40 40 40 40 41 41 42 42 42 41 41 41 41 41 40 40 38 37 37 38 38 38 39 40 41 42 43 44 45 46 47 48 48 48 48 48 47 45 44 43 41
34 34 33 32 32 31 31 31 30 28 27 26 26 27 28 29 30 30 31 31 31 31 30 31 32 33 34 35 35 36 36 37 37 37 37 37 37 38 38 38 38 38 39 39 40 40 40 41 41 41 41 42 42 42 42 41 41 40 40 40 40 39 39 38 38 39 39 40 40 41 42 43 45 46 47 47 48 48 48 48 47 46 45 43 42 42
35 33 32 30 29 29 29 28 28 26 26 25 25 26 27 28 29 29 30 30 30 29 30 30 32 34 35 36 36 36 36 36 36 36 36 36 37 37 38 38 38 38 39 40 40 41 41 41 41 41 41 42 42 43 42 42 41 40 40 40 40 40 40 39 39 39 40 40 40 41 42 44 45 46 47 48 48 48 48 47 47 46 44 43 41 40
34 33 30 28 27 27 27 27 26 26 25 25 26 26 26 27 27 28 28 29 29 29 29 31 33 35 36 36 36 36 35 35 35 35 35 36 36 37 37 38 38 38 39 40 40 41 41 41 41 41 41 42 42 43 43 42 41 40 39 39 40 41 42 41 40 40 41 41 41 41 42 44 45 47 48 48 48 48 48 47 46 45 43 42 41 40
34 32 29 27 26 25 26 26 26 26 26 26 26 26 26 26 26 27 27 28 28 28 30 31 33 34 35 35 35 34 34 34 34 34 35 35 36 36 36 37 38 38 39 40 40 41 41 41 41 41 41 42 42 43 42 42 40 39 39 39 40 42 43 43 42 42 42 41 41 42 42 44 46 47 48 48 48 48 48 47 46 44 43 41 40 39
33 31 29 27 26 25 25 25 26 26 26 26 25 25 25 25 25 26 26 27 27 28 30 31 32 33 34 33 33 32 32 32 33 33 34 34 35 35 36 37 37 38 39 40 40 40 40 41 41 41 41 42 42 42 42 41 40 39 39 39 40 42 43 43 43 43 42 42 42 42 43 44 46 48 49 49 49 48 48 47 46 44 42 40 39 38
31 30 28 27 25 25 24 25 25 26 26 26 25 25 24 24 25 25 25 26 27 28 29 30 31 31 31 31 30 30 31 31 32 32 33 34 34 35 36 37 37 38 39 39 39 40 40 40 41 41 41 42 42 42 41 40 40 40 39 40 41 43 44 44 43 43 43 43 43 43 43 45 46 48 49 49 49 49 48 47 45 44 42 40 38 37
30 28 27 26 25 24 24 24 25 25 25 25 24 24 23 23 24 24 25 26 26 27 28 29 30 30 30 30 29 30 30 31 32 32 33 33 34 35 36 37 37 38 38 38 39 39 40 40 40 41 41 41 41 41 40 39 39 39 40 41 42 43 44 44 43 42 42 42 43 43 44 45 47 48 49 50 50 49 48 46 45 43 41 40 38 37
28 27 26 25 24 24 24 24 24 25 25 24 24 23 23 23 23 24 25 26 26 27 29 30 30 31 31 30 30 30 31 32 32 33 33 33 34 35 36 36 37 37 38 38 39 39 40 40 40 40 40 40 40 40 39 39 38 39 40 41 42 44 44 44 43 42 42 42 42 43 44 45 47 48 50 51 51 50 49 47 44 42 40 39 38 37
26 25 25 24 24 24 24 24 24 25 25 24 24 23 23 23 24 25 26 26 28 29 30 31 32 32 32 32 32 32 32 33 33 33 34 34 34 34 35 36 37 37 38 38 38 39 40 40 40 40 39 39 39 39 39 38 38 38 40 41 43 44 44 44 43 42 42 42 42 42 43 45 46 48 49 51 52 52 50 48 44 41 39 39 38 37
26 25 24 24 24 24 24 25 25 25 25 25 25 25 25 25 26 27 27 28 29 31 32 33 34 34 34 34 33 34 34 34 35 34 34 34 34 34 35 36 36 37 37 38 38 39 39 39 40 39 38 38 38 38 38 37 37 38 40 41 43 44 44 44 43 42 42 42 42 43 43 44 46 47 49 51 52 52 51 48 45 41 39 38 38 37
26 25 25 25 25 25 26 26 26 27 27 27 27 27 27 28 28 28 29 30 31 32 33 34 34 35 35 35 35 36 36 36 36 35 34 34 34 35 35 36 36 36 37 37 37 38 38 39 39 39 38 36 36 36 36 37 37 38 40 41 42 43 43 43 43 42 42 42 42 43 44 45 46 47 49 50 52 53 52 49 45 41 38 38 37 36
Wind_Direction
280 279 278 277 276 275 274 272 271 269 268 266 264 262 260 259 258 256 255 254 254 255 255 256 258 259 260 261 262 263 264 264 265 266 266 266 266 266 266 265 265 265 264 263 262 262 262 263 264 265 267 268 270 271 273 274 276 278 279 281 282 283 283 283 283 283 284 284 285 285 286 286 285 285 285 284 283 282 282 281 281 281 280 281 281 281
279 278 277 276 275 274 273 272 270 269 268 266 264 262 261 259 258 257 256 256 256 256 257 257 258 259 260 261 262 262 263 264 264 265 265 265 265 265 264 264 264 263 263 262 262 262 262 263 264 265 267 269 270 272 273 275 276 278 279 281 281 282 282 282 283 284 284 285 285 285 285 285 284 284 283 282 282 281 281 280 280 280 280 280 281 281
277 277 277 276 276 275 274 272 270 268 267 266 264 262 261 260 259 258 258 258 258 258 258 258 259 260 261 261 262 262 262 263 263 263 263 263 263 263 263 263 263 262 262 261 261 261 262 263 264 266 267 269 270 272 273 275 276 278 279 280 281 281 282 282 283 284 285 285 285 285 284 284 283 283 282 281 281 280 280 280 280 280 280 280 280 280
276 277 277 277 277 276 275 273 271 269 266 265 263 262 261 261 260 260 260 259 259 259 260 260 260 261 261 262 262 261 261 261 261 262 262 262 262 262 262 262 261 261 260 260 260 260 261 262 264 265 267 269 270 272 273 275 276 278 279 279 280 281 282 283 284 284 285 285 284 284 283 283 283 282 282 281 280 280 280 280 280 280 280 280 280 280
275 276 277 277 277 277 277 275 273 270 267 265 264 263 262 261 261 261 261 261 260 261 261 261 261 261 261 261 261 260 260 260 260 260 260 260 260 260 261 260 260 260 259 259 259 260 260 262 263 265 266 268 270 272 273 275 276 277 278 279 280 281 282 283 284 284 284 284 284 283 283 283 282 282 281 281 280 280 280 280 280 280 280 280 280 280
275 276 277 277 276 276 276 276 274 272 269 267 265 264 263 262 262 262 261 261 261 261 261 261 261 261 261 261 260 259 258 258 258 258 258 259 259 259 259 259 259 259 258 258 258 259 260 261 263 264 266 268 270 271 273 274 276 277 278 279 280 281 282 283 284 284 284 284 284 283 283 283 282 282 281 280 280 279 279 279 279 279 279 279 279 279
274 276 277 278 277 276 275 275 274 272 270 268 266 265 264 263 262 262 261 261 261 261 261 261 261 261 261 260 259 258 257 256 256 256 257 257 258 258 258 258 258 258 257 257 257 258 259 260 262 264 265 267 269 271 273 274 275 277 277 278 279 281 282 283 283 284 284 284 284 283 283 283 282 282 281 280 279 279 279 279 279 279 279 279 279 278
273 275 278 279 279 278 276 275 273 272 270 268 266 265 264 264 263 262 261 261 260 260 260 260 260 260 260 259 258 257 256 255 255 255 255 256 256 257 257 257 257 256 256 256 256 257 258 259 261 263 265 267 269 271 272 274 275 276 277 278 279 281 282 283 284 284 284 284 284 284 283 283 282 281 280 280 279 278 278 278 278 278 278 278 278 278
273 275 278 280 280 280 278 276 274 272 270 268 266 265 264 264 264 263 263 262 261 260 260 259 259 259 258 258 256 255 255 254 254 254 254 254 255 256 256 256 255 255 255 255 255 256 257 258 260 262 264 266 268 270 272 273 274 275 276 278 279 281 282 283 284 284 284 284 284 283 283 283 282 281 280 279 279 278 278 278 277 277 277 277 277 277
273 275 277 279 280 280 280 278 276 274 272 269 267 266 264 264 264 264 263 263 262 261 260 259 258 257 257 256 255 254 253 253 252 252 253 253 254 254 254 254 254 254 254 253 254 255 256 258 260 262 264 266 268 270 271 272 273 274 276 278 279 281 283 283 284 283 283 283 283 284 283 283 282 281 280 279 279 278 278 278 277 277 277 277 277 277
275 276 276 277 278 279 279 278 277 275 273 271 269 268 266 265 265 264 264 263 262 261 259 258 257 256 254 253 253 252 252 252 252 251 251 252 252 252 253 253 253 252 252 252 253 254 255 257 259 261 263 265 267 269 270 271 273 274 276 278 280 282 283 283 283 283 283 283 284 284 283 283 282 282 281 280 280 279 279 279 279 279 279 279 278 278
277 276 275 276 278 279 279 278 276 274 273 272 271 269 268 267 267 265 264 262 261 259 257 256 255 254 252 251 250 250 250 250 251 251 251 251 251 251 251 251 251 251 251 251 252 253 255 256 258 261 263 265 267 268 270 271 272 274 276 278 280 281 282 282 282 283 283 283 284 284 284 284 283 283 282 282 281 281 281 281 281 281 281 281 281 281
274 274 274 276 279 282 281 278 276 274 273 273 272 271 270 268 267 265 263 261 258 256 253 252 252 252 251 250 249 248 249 250 250 250 250 250 250 250 250 250 250 250 250 250 251 252 254 256 258 260 262 264 266 268 269 271 272 274 276 278 280 281 281 281 282 283 283 284 284 284 284 284 284 284 283 283 283 282 282 282 282 282 282 282 282 282
271 272 274 277 281 284 283 281 279 277 275 274 273 272 271 268 266 264 261 259 256 253 250 249 248 249 249 248 248 248 248 249 250 250 250 250 250 249 249 250 249 249 249 250 250 251 253 255 257 260 262 264 266 267 269 271 272 274 276 278 279 280 280 281 282 283 283 284 285 285 285 285 285 284 284 284 284 283 283 283 283 283 283 283 283 283
269 271 274 278 282 285 286 285 283 281 279 277 275 273 271 269 266 263 260 257 254 251 248 247 247 247 247 247 247 247 248 248 249 249 250 249 249 249 248 249 249 249 249 249 250 251 252 255 257 259 261 263 265 267 269 270 272 273 275 277 278 279 279 280 282 283 284 285 285 285 286 286 286 286 286 285 285 285 284 284 284 284 284 284 283 283
269 271 275 278 282 285 287 287 287 285 283 280 278 275 273 270 267 263 259 255 252 249 247 246 247 247 247 247 247 247 247 248 249 249 249 249 248 248 247 248 248 248 248 248 249 250 252 254 257 259 261 263 264 266 268 270 271 273 274 276 277 278 279 280 282 283 284 286 286 287 287 287 287 287 287 287 286 286 286 285 285 285 285 284 284 284
269 271 275 278 281 284 286 287 288 288 286 284 281 278 274 271 267 263 259 255 251 248 247 246 246 247 247 247 247 247 247 248 249 249 249 248 247 247 246 247 247 247 247 247 248 250 252 254 256 258 260 262 264 266 268 269 271 273 274 275 276 277 279 280 282 284 286 287 287 288 288 288 288 288 288 287 287 287 286 286 286 286 285 285 285 285
270 272 274 277 280 282 284 285 287 288 287 285 283 280 276 272 267 262 258 254 251 248 247 247 247 247 247 246 246 247 247 247 248 249 249 248 247 247 246 247 247 247 247 247 248 249 252 254 256 258 260 262 264 266 268 269 271 272 273 274 275 277 278 281 283 285 287 288 288 288 288 288 288 288 287 287 287 287 286 286 286 286 286 286 286 286
269 271 273 276 279 280 282 284 285 286 286 285 282 280 276 271 267 262 258 255 252 249 248 247 247 248 248 247 246 246 246 246 247 248 248 248 247 247 247 247 247 248 247 247 248 250 251 253 256 257 259 261 264 266 268 270 271 272 273 274 275 276 279 281 284 286 287 288 289 289 289 289 288 288 287 287 287 287 287 287 287 287 287 287 287 286
269 270 273 275 277 279 280 282 283 284 284 283 281 279 275 271 266 262 258 255 252 251 249 248 248 248 248 247 246 245 245 245 246 247 248 248 248 247 247 247 248 248 248 248 248 249 251 253 255 257 259 262 264 266 268 270 271 272 273 273 275 276 279 281 284 286 288 289 289 289 289 289 288 288 287 287 287 287 287 287 287 287 287 287 287 287
268 270 272 274 276 277 278 280 281 281 281 280 279 278 275 270 265 261 257 254 252 250 249 248 248 248 247 246 245 244 244 245 246 247 248 249 249 248 248 248 248 248 248 248 248 249 251 253 255 257 259 262 264 267 269 270 271 272 273 274 275 277 279 282 284 286 288 289 289 289 289 288 288 288 287 287 288 288 288 288 288 289 289 289 289 289
267 269 271 273 274 275 277 278 278 278 277 277 277 275 273 268 263 259 256 253 250 249 248 247 247 247 246 244 243 244 244 245 246 248 249 250 249 249 249 248 248 248 248 248 248 249 251 253 255 257 259 262 264 267 269 270 272 272 273 274 276 278 280 282 285 287 288 288 289 289 288 288 288 288 288 288 288 289 289 290 290 291 291 292 292 292
267 268 270 272 273 274 275 276 276 275 275 275 274 273 270 265 260 256 253 250 249 248 248 247 246 246 245 244 243 244 244 245 247 248 250 251 251 250 249 249 249 249 248 248 249 250 251 253 255 257 259 262 264 267 269 271 272 273 274 275 277 279 281 283 285 287 288 288 289 288 288 288 288 288 289 289 290 290 291 292 292 293 294 294 294 294
269 269 270 271 272 273 274 274 274 273 273 273 272 270 267 262 257 253 250 248 247 247 246 245 245 245 244 244 244 244 245 246 248 249 251 252 252 251 250 249 249 250 249 249 249 250 251 253 255 257 259 262 265 267 269 271 273 274 276 277 279 280 282 284 286 287 288 289 289 288 288 289 289 289 290 291 291 292 293 294 295 295 296 296 295 295
271 271 270 271 272 272 273 273 273 272 271 271 270 268 264 259 254 251 248 247 245 244 244 244 244 244 245 245 245 245 246 247 248 250 252 253 253 253 251 251 251 251 251 250 250 251 252 254 255 258 260 262 265 267 270 272 273 275 277 279 280 282 284 286 287 288 289 289 289 289 289 289 290 291 292 292 293 294 295 296 296 297 297 297 297 296
271 272 272 272 271 272 272 273 273 272 270 269 268 265 260 255 250 247 246 245 244 243 244 244 244 244 245 246 246 246 247 248 249 251 252 254 255 254 253 252 252 253 252 252 252 252 253 255 256 258 260 263 265 267 270 272 274 277 279 280 282 284 285 287 288 288 289 289 289 289 290 290 291 292 293 293 294 295 296 297 298 298 299 299 298 297
269 271 272 272 272 271 271 271 272 271 271 269 267 264 258 252 248 246 245 245 244 243 243 243 243 245 245 246 247 247 248 249 249 251 252 254 255 255 255 254 254 254 254 254 253 254 254 256 257 259 261 263 265 268 270 273 276 278 280 282 284 286 287 288 289 289 290 290 290 290 290 291 292 293 293 295 296 297 298 299 300 300 301 300 299 298
265 267 269 271 271 272 271 271 271 271 271 270 268 263 257 251 247 245 244 245 244 242 242 243 244 245 246 247 247 248 248 248 249 251 252 254 255 256 256 256 255 256 256 255 255 254 255 256 258 260 261 264 266 268 271 274 277 279 282 284 286 287 288 289 289 290 290 290 290 290 291 292 292 294 295 296 298 299 300 301 302 302 302 301 300 299
263 264 265 267 269 270 271 271 270 270 270 270 269 265 259 253 248 246 245 244 243 242 242 243 244 245 246 247 248 249 248 249 250 251 253 255 256 257 257 257 257 257 257 257 256 256 256 257 258 260 263 265 267 270 272 275 278 280 283 285 287 288 289 290 290 290 290 290 290 291 291 292 294 295 297 298 300 301 302 303 304 304 303 302 301 299
261 262 263 264 265 267 269 270 270 271 271 271 270 267 262 256 250 246 244 241 241 241 242 243 244 245 246 248 249 250 250 250 251 252 254 256 257 258 259 259 259 258 258 259 259 259 258 258 259 261 264 266 269 271 274 276 279 281 284 286 288 289 290 290 290 290 290 290 290 291 292 294 295 297 299 300 301 303 304 305 305 305 305 304 302 300
261 261 262 262 263 264 265 267 269 270 271 271 270 268 265 259 252 246 242 238 238 240 242 243 244 245 246 248 250 251 251 252 252 254 255 257 258 259 260 260 260 260 260 261 262 262 261 260 261 263 265 268 271 273 275 278 280 283 286 288 289 290 290 290 290 290 290 290 291 292 293 295 297 299 300 302 303 304 305 306 307 306 306 304 303 301
261 261 262 262 263 263 264 265 267 268 269 270 269 268 265 260 253 246 241 238 237 238 240 242 243 245 246 248 249 251 253 253 254 255 256 257 258 259 260 261 262 262 262 263 264 265 265 265 265 266 268 271 273 275 278 280 283 285 288 289 290 290 290 290 290 290 290 291 292 293 295 297 298 300 302 303 304 305 306 307 308 307 307 305 304 302
261 261 262 262 263 263 264 265 266 267 268 268 267 266 264 260 253 247 242 239 237 236 237 240 242 244 246 248 249 251 253 254 256 257 258 259 260 261 262 262 263 264 264 265 266 267 268 269 270 271 272 273 275 278 280 282 285 287 289 290 290 290 290 290 290 291 291 292 293 294 296 298 300 301 303 304 305 306 307 308 308 308 307 306 305 304
261 261 262 263 263 264 265 266 266 266 266 266 265 264 262 258 252 246 242 240 238 237 237 239 241 244 246 248 250 252 253 255 257 260 261 263 264 264 265 265 266 266 267 268 269 270 272 273 274 275 276 276 277 279 282 284 286 288 289 290 290 290 291 291 291 292 293 294 295 296 298 300 301 303 304 305 306 307 308 309 309 309 308 308 307 306
262 262 262 263 264 265 266 267 267 267 266 264 262 261 259 256 251 245 242 240 239 239 239 240 242 245 248 251 253 256 257 259 262 264 266 267 267 267 268 268 268 269 270 271 273 274 275 276 277 278 279 280 280 281 283 285 287 288 288 289 290 290 291 292 293 294 295 296 297 299 301 302 303 304 305 306 307 308 310 311 311 310 309 308 308 307
264 264 264 264 265 266 266 267 267 267 265 263 261 258 256 254 250 245 241 239 240 241 243 244 246 249 252 255 258 261 263 265 267 268 268 268 268 269 269 270 270 271 273 274 275 276 277 278 278 279 280 281 282 283 285 286 286 287 288 289 290 291 292 293 295 296 297 298 300 302 303 304 305 306 306 307 309 310 311 311 311 311 309 308 307 306
267 266 266 266 266 267 267 267 267 267 265 263 260 257 254 253 250 244 239 238 239 242 245 247 250 253 256 259 262 264 266 267 267 267 267 268 268 269 270 271 272 273 274 275 276 277 277 278 279 279 280 281 283 284 285 286 286 286 287 289 290 291 293 294 296 298 299 301 302 304 305 306 306 307 307 308 309 311 311 312 311 311 309 308 306 305
268 269 269 269 269 269 269 269 268 268 267 264 260 256 254 251 248 243 238 237 238 241 245 249 253 256 260 262 264 265 265 265 264 264 265 267 268 270 271 272 273 275 275 276 276 277 277 278 278 279 280 281 282 284 285 285 286 286 288 289 290 292 294 296 297 299 301 302 304 305 306 307 307 307 308 309 310 311 312 312 312 311 309 308 306 305
270 271 271 272 273 273 273 272 271 270 268 265 261 256 252 248 243 239 236 235 238 241 245 250 254 258 260 262 262 262 262 261 261 262 264 266 268 270 271 273 274 275 276 276 276 276 276 277 278 279 280 281 282 283 284 285 286 287 289 290 291 292 295 297 299 300 302 304 305 306 307 307 307 307 308 309 310 311 312 312 312 311 310 309 307 305
272 273 274 275 276 276 276 275 274 271 268 263 258 251 245 240 236 233 232 234 237 241 246 250 254 257 258 259 259 259 259 259 260 261 263 266 268 270 271 273 274 275 276 276 276 276 276 277 278 279 280 281 282 282 283 284 286 287 289 291 292 294 296 298 300 302 303 305 306 306 307 307 307 307 308 309 310 311 312 312 312 311 310 309 308 306
275 275 276 277 278 278 277 275 272 268 263 257 250 242 236 231 229 229 231 234 238 242 246 250 253 255 257 257 258 258 258 259 260 262 264 266 268 269 271 273 274 275 275 276 276 276 277 277 278 278 279 280 281 282 283 284 286 288 289 291 294 296 297 299 301 302 304 304 305 306 307 307 307 307 308 309 310 311 312 312 311 311 311 310 309 307
278 277 277 277 277 276 274 271 268 263 257 250 242 235 230 228 227 229 232 236 240 244 247 250 253 255 256 257 257 257 258 259 261 263 264 266 268 269 271 272 274 274 275 275 275 276 276 277 277 278 278 279 280 281 282 284 286 288 290 293 295 297 298 299 301 302 303 304 305 306 307 307 307 307 307 308 310 311 311 311 311 311 311 311 309 307
279 278 277 276 273 271 268 265 261 256 250 243 237 233 230 229 230 233 236 240 243 246 248 250 252 254 255 256 256 257 259 260 262 264 265 267 268 269 271 272 273 274 274 274 274 275 276 276 276 277 278 279 280 281 282 284 287 289 291 294 296 297 298 300 301 302 303 304 305 306 306 306 306 306 307 308 309 311 311 312 312 312 312 311 309 307
279 278 276 273 268 264 260 257 254 250 245 240 236 233 232 233 235 237 240 242 245 246 247 249 251 252 254 255 257 259 260 262 264 265 266 268 269 270 271 272 273 273 273 272 273 274 274 275 275 276 277 278 279 280 283 285 288 290 293 295 296 297 298 299 301 302 303 304 305 306 306 305 305 306 306 308 309 311 312 312 312 312 311 310 309 307
278 277 273 269 264 258 253 250 247 245 242 239 236 235 235 237 238 240 242 243 244 245 246 248 250 252 255 257 260 262 264 265 266 267 268 269 270 270 271 271 272 272 272 272 272 273 273 274 275 276 277 277 278 280 283 286 289 291 293 295 296 296 297 298 300 301 303 304 305 305 305 305 305 305 306 308 310 311 312 312 312 312 311 310 309 306
277 275 271 266 259 253 248 245 243 241 240 239 237 237 237 238 240 241 242 243 244 245 246 248 251 254 258 261 264 266 268 268 269 269 269 270 270 271 271 271 271 271 271 272 272 272 273 273 274 275 276 277 279 281 284 287 289 291 293 294 295 295 296 297 299 301 302 303 303 304 304 304 305 306 307 308 310 311 312 313 313 312 312 311 309 306
275 273 268 263 256 249 244 240 238 238 238 238 237 237 238 239 240 241 243 244 245 247 249 251 254 258 262 265 269 271 272 273 273 272 271 271 271 271 271 272 272 272 272 272 272 272 272 273 273 274 275 277 279 281 284 287 289 291 293 294 294 294 294 296 298 299 300 301 302 303 303 304 305 306 308 309 310 311 312 313 313 313 312 311 309 306
272 270 265 259 251 244 238 235 234 234 235 235 236 237 238 240 242 244 246 248 250 251 253 255 258 261 265 268 271 274 276 276 276 274 273 272 272 271 272 272 272 272 272 271 271 271 271 271 272 273 274 276 279 282 285 287 289 290 292 292 292 293 293 295 296 298 299 300 301 302 304 305 306 308 309 309 310 311 312 313 313 313 313 312 310 307
268 265 260 253 246 239 234 231 230 231 232 234 235 237 240 243 245 248 250 251 253 255 257 259 261 264 267 270 273 276 277 278 277 276 275 274 273 273 273 273 272 272 271 270 270 270 270 270 271 272 274 276 279 282 285 287 288 290 290 290 291 291 292 294 295 297 298 300 301 302 304 305 307 308 309 310 310 311 312 313 313 313 313 313 311 307
265 260 254 247 241 235 232 231 231 232 233 235 237 239 242 244 246 247 249 251 253 255 257 260 263 266 269 272 275 277 278 279 278 277 276 275 275 275 274 273 273 272 271 270 269 269 270 270 271 273 274 276 278 281 284 286 287 288 288 288 289 290 291 293 295 297 299 300 302 303 305 306 307 308 309 309 310 311 312 312 313 313 314 313 311 307
262 256 249 242 238 236 235 235 235 237 238 239 241 242 244 245 246 247 248 249 251 254 257 261 264 267 270 273 276 277 279 279 278 278 277 276 276 275 275 274 273 272 271 271 270 270 271 271 272 273 275 277 279 281 283 285 286 286 286 287 288 289 291 293 296 298 300 301 303 304 305 307 308 308 309 309 310 311 312 313 313 314 314 314 311 306
Height
2939 2939 2939 2939 2939 2939 2940 2941 2942 2942 2942 2942 2942 2942 2941 2940 2940 2940 2940 2940 2940 2940 2941 2941 2942 2942 2943 2944 2945 2945 2945 2945 2945 2945 2945 2945 2945 2945 2946 2946 2946 2946 2947 2947 2947 2947 2947 2947 2948 2948 2948 2947 2947 2947 2947 2947 2947 2946 2946 2945 2945 2945 2945 2944 2944 2943 2942 2942 2941 2941 2940 2940 2940 2939 2939 2939 2939 2938 2938 2938 2937 2937 2937 2937 2937 2936
2936 2935 2935 2935 2935 2935 2936 2937 2937 2937 2937 2938 2938 2938 2937 2937 2936 2936 2936 2936 2936 2936 2937 2937 2938 2938 2939 2940 2941 2941 2941 2941 2941 2941 2941 2941 2942 2942 2942 2942 2942 2943 2943 2943 2943 2943 2944 2944 2944 2944 2944 2944 2944 2944 2944 2944 2943 2943 2942 2942 2942 2941 2941 2941 2940 2939 2939 2938 2937 2937 2937 2937 2936 2936 2936 2936 2935 2935 2934 2934 2933 2933 2933 2933 2933 2932
2932 2932 2931 2931 2931 2931 2932 2932 2933 2933 2933 2934 2934 2934 2933 2933 2932 2932 2932 2932 2932 2932 2933 2933 2934 2934 2935 2936 2937 2937 2937 2937 2937 2937 2937 2937 2938 2938 2938 2939 2939 2939 2939 2939 2940 2940 2940 2940 2941 2941 2941 2941 2941 2941 2940 2940 2940 2939 2939 2939 2938 2938 2937 2937 2936 2935 2935 2934 2934 2933 2933 2933 2932 2932 2932 2932 2931 2931 2930 2930 2930 2929 2929 2929 2929 2929
2928 2928 2928 2928 2927 2927 2928 2929 2929 2929 2929 2929 2929 2929 2929 2929 2929 2929 2929 2928 2928 2928 2929 2929 2930 2930 2931 2932 2932 2933 2933 2934 2934 2933 2933 2934 2934 2934 2935 2935 2935 2936 2936 2936 2936 2936 2937 2937 2937 2937 2937 2937 2937 2937 2937 2937 2937 2936 2936 2936 2935 2934 2934 2933 2932 2932 2931 2930 2930 2930 2929 2929 2929 2928 2928 2927 2927 2927 2926 2926 2926 2925 2925 2925 2925 2925
2925 2925 2925 2924 2924 2924 2924 2925 2925 2925 2925 2925 2925 2925 2925 2925 2925 2925 2925 2925 2925 2925 2925 2925 2926 2926 2927 2927 2928 2929 2930 2930 2930 2930 2930 2930 2930 2931 2931 2931 2932 2932 2932 2932 2932 2933 2933 2933 2933 2934 2934 2934 2934 2934 2934 2933 2933 2933 2932 2932 2932 2931 2930 2929 2928 2928 2927 2927 2927 2926 2926 2925 2925 2924 2924 2923 2923 2922 2922 2922 2922 2921 2921 2921 2921 2920
2922 2921 2921 2920 2920 2920 2921 2921 2922 2922 2922 2922 2921 2921 2921 2921 2921 2921 2921 2921 2921 2921 2921 2922 2922 2922 2922 2923 2924 2925 2926 2926 2926 2926 2926 2926 2927 2927 2927 2928 2928 2928 2928 2928 2929 2929 2929 2930 2930 2931 2931 2931 2931 2931 2931 2930 2930 2929 2929 2929 2928 2927 2927 2926 2925 2924 2924 2923 2923 2922 2922 2921 2921 2920 2920 2919 2919 2918 2918 2918 2917 2917 2917 2917 2916 2916
2918 2917 2917 2916 2916 2917 2917 2917 2917 2918 2918 2918 2917 2917 2917 2917 2917 2917 2917 2917 2917 2917 2917 2918 2918 2918 2918 2919 2920 2921 2921 2922 2922 2922 2922 2922 2923 2923 2923 2924 2924 2924 2925 2925 2925 2926 2926 2927 2927 2927 2927 2927 2927 2927 2927 2927 2927 2926 2926 2925 2925 2924 2923 2922 2922 2921 2920 2920 2919 2918 2918 2917 2917 2916 2916 2915 2915 2914 2914 2914 2913 2913 2913 2912 2912 2912
2914 2914 2913 2913 2912 2912 2913 2913 2914 2914 2914 2914 2914 2914 2913 2913 2913 2913 2913 2913 2913 2913 2914 2914 2914 2914 2914 2915 2916 2917 2917 2917 2917 2917 2918 2918 2919 2919 2920 2920 2921 2921 2921 2922 2922 2922 2923 2923 2924 2924 2924 2924 2924 2924 2924 2924 2923 2923 2922 2922 2921 2920 2920 2919 2918 2917 2917 2916 2915 2915 2914 2914 2913 2912 2912 2912 2911 2911 2910 2910 2909 2909 2909 2908 2908 2907
2910 2910 2910 2909 2909 2909 2909 2909 2910 2910 2910 2910 2910 2910 2909 2909 2909 2909 2909 2909 2909 2909 2909 2909 2910 2910 2911 2911 2912 2912 2912 2913 2913 2913 2914 2914 2915 2916 2916 2917 2917 2917 2918 2918 2919 2919 2920 2920 2921 2921 2921 2921 2921 2921 2921 2921 2920 2920 2919 2918 2918 2917 2916 2916 2915 2914 2913 2912 2912 2911 2911 2910 2909 2909 2908 2907 2907 2907 2906 2906 2905 2905 2905 2904 2904 2904
2906 2906 2906 2906 2905 2905 2905 2905 2906 2906 2906 2905 2905 2905 2905 2905 2905 2905 2905 2905 2905 2905 2905 2905 2906 2906 2907 2907 2908 2908 2908 2909 2909 2910 2910 2911 2911 2912 2912 2913 2913 2914 2914 2915 2915 2916 2917 2917 2917 2918 2918 2918 2918 2918 2917 2917 2917 2917 2916 2915 2914 2914 2913 2912 2912 2911 2910 2909 2908 2907 2907 2906 2906 2905 2904 2904 2903 2902 2902 2902 2901 2901 2901 2900 2900 2899
2902 2902 2902 2902 2902 2902 2902 2901 2902 2902 2901 2901 2901 2901 2901 2901 2901 2901 2901 2901 2901 2901 2901 2901 2902 2902 2903 2903 2904 2904 2904 2904 2905 2906 2907 2907 2908 2908 2909 2909 2910 2910 2911 2912 2912 2913 2913 2914 2914 2915 2915 2915 2915 2915 2914 2914 2914 2913 2913 2912 2911 2911 2910 2909 2908 2907 2906 2906 2905 2904 2903 2903 2902 2901 2901 2900 2899 2899 2898 2898 2897 2897 2896 2896 2895 2895
2898 2898 2898 2898 2898 2898 2898 2897 2897 2897 2897 2897 2896 2897 2897 2897 2897 2897 2896 2896 2897 2897 2897 2897 2897 2898 2899 2899 2900 2900 2900 2900 2901 2902 2903 2903 2904 2905 2905 2906 2906 2907 2907 2908 2909 2910 2910 2911 2911 2912 2912 2912 2912 2912 2911 2911 2910 2910 2910 2909 2908 2907 2907 2906 2905 2904 2903 2902 2902 2901 2900 2899 2898 2898 2897 2896 2896 2895 2894 2894 2893 2893 2892 2892 2891 2890
2894 2894 2894 2894 2894 2894 2894 2893 2893 2892 2892 2892 2892 2892 2892 2893 2892 2892 2891 2892 2893 2894 2894 2893 2893 2893 2894 2895 2896 2896 2896 2897 2897 2898 2899 2900 2900 2901 2902 2902 2903 2903 2904 2905 2905 2906 2907 2908 2908 2908 2908 2908 2908 2908 2908 2907 2907 2907 2907 2906 2905 2904 2903 2902 2902 2901 2900 2899 2898 2897 2897 2896 2895 2894 2893 2893 2892 2892 2891 2890 2889 2889 2888 2887 2887 2886
2891 2891 2890 2890 2890 2891 2890 2889 2889 2888 2888 2888 2888 2888 2888 2887 2887 2887 2887 2887 2888 2889 2889 2889 2889 2889 2890 2891 2892 2892 2893 2893 2894 2894 2895 2896 2897 2898 2899 2899 2899 2900 2901 2901 2902 2903 2904 2905 2905 2905 2906 2905 2905 2905 2905 2904 2904 2904 2903 2903 2902 2901 2900 2899 2898 2897 2897 2896 2895 2894 2893 2892 2892 2891 2890 2889 2888 2888 2887 2886 2886 2885 2884 2883 2882 2882
2887 2887 2886 2886 2887 2887 2886 2885 2885 2884 2884 2884 2884 2883 2883 2882 2882 2882 2882 2883 2884 2884 2885 2884 2884 2885 2886 2887 2888 2889 2889 2890 2890 2891 2892 2893 2894 2895 2895 2895 2896 2896 2897 2898 2899 2900 2901 2902 2902 2902 2902 2902 2902 2902 2902 2901 2901 2901 2900 2900 2899 2898 2897 2896 2895 2894 2893 2892 2891 2890 2889 2888 2888 2887 2886 2885 2885 2884 2883 2882 2882 2881 2880 2879 2878 2877
2883 2883 2882 2883 2883 2883 2882 2882 2881 2881 2880 2880 2879 2879 2878 2878 2878 2878 2878 2879 2879 2880 2880 2880 2880 2881 2882 2884 2885 2886 2886 2886 2887 2887 2888 2889 2890 2892 2892 2892 2892 2892 2894 2895 2896 2897 2898 2898 2899 2899 2899 2899 2899 2898 2898 2898 2898 2898 2897 2897 2896 2895 2894 2893 2892 2891 2890 2889 2887 2887 2886 2885 2884 2883 2882 2882 2881 2880 2879 2878 2877 2877 2876 2875 2874 2872
2879 2879 2879 2879 2879 2879 2879 2878 2877 2877 2877 2876 2876 2875 2875 2874 2874 2874 2875 2875 2875 2876 2876 2876 2877 2877 2878 2880 2882 2882 2883 2883 2883 2884 2885 2886 2887 2888 2888 2888 2888 2889 2891 2892 2893 2894 2895 2895 2896 2896 2896 2896 2896 2896 2895 2895 2895 2895 2894 2893 2893 2892 2891 2890 2889 2888 2887 2885 2884 2883 2882 2881 2880 2879 2878 2877 2877 2876 2875 2874 2873 2872 2871 2870 2869 2868
2875 2875 2875 2876 2876 2876 2876 2875 2874 2874 2873 2872 2872 2871 2871 2871 2871 2871 2871 2871 2872 2872 2872 2872 2873 2874 2875 2877 2878 2880 2881 2880 2880 2880 2881 2882 2883 2884 2885 2885 2885 2886 2887 2889 2890 2891 2892 2892 2892 2892 2892 2892 2892 2892 2892 2892 2892 2892 2891 2890 2889 2889 2888 2887 2886 2884 2883 2882 2881 2879 2878 2877 2877 2876 2875 2874 2873 2872 2871 2870 2869 2868 2867 2865 2864 2863
2871 2872 2872 2872 2872 2872 2872 2872 2871 2871 2870 2869 2868 2868 2867 2867 2867 2867 2867 2867 2868 2868 2869 2869 2870 2871 2872 2874 2876 2877 2877 2877 2876 2876 2877 2878 2879 2880 2881 2881 2882 2882 2884 2886 2887 2888 2889 2889 2889 2889 2889 2889 2889 2889 2889 2889 2889 2888 2888 2887 2886 2885 2884 2883 2882 2881 2880 2878 2877 2876 2875 2874 2873 2872 2871 2870 2869 2868 2867 2866 2865 2863 2862 2861 2859 2858
2867 2867 2868 2869 2869 2869 2868 2868 2868 2867 2866 2865 2865 2864 2864 2863 2864 2864 2864 2864 2865 2865 2865 2866 2867 2867 2869 2871 2873 2874 2874 2873 2872 2872 2872 2874 2875 2876 2877 2878 2878 2879 2881 2882 2884 2885 2885 2885 2885 2886 2886 2886 2886 2886 2886 2886 2885 2885 2884 2883 2883 2882 2881 2880 2879 2878 2877 2875 2873 2872 2871 2870 2869 2868 2867 2866 2865 2864 2862 2861 2860 2859 2857 2856 2854 2853
2863 2863 2864 2865 2865 2865 2865 2865 2865 2864 2863 2862 2861 2861 2860 2860 2860 2860 2861 2861 2862 2862 2862 2862 2863 2865 2867 2868 2869 2870 2870 2869 2869 2868 2869 2870 2871 2873 2874 2875 2875 2876 2877 2879 2881 2882 2882 2882 2882 2882 2882 2882 2882 2882 2882 2882 2882 2881 2881 2880 2879 2878 2878 2877 2876 2875 2873 2872 2870 2869 2867 2866 2865 2864 2863 2862 2861 2860 2858 2857 2856 2854 2852 2851 2849 2847
2859 2860 2861 2861 2861 2861 2862 2862 2862 2861 2860 2858 2857 2857 2857 2857 2857 2857 2857 2858 2858 2858 2859 2859 2861 2862 2863 2865 2865 2865 2865 2865 2865 2865 2866 2867 2868 2870 2872 2872 2872 2872 2874 2876 2878 2878 2878 2878 2878 2878 2879 2879 2879 2879 2879 2879 2878 2878 2877 2877 2876 2875 2874 2873 2872 2871 2870 2868 2867 2865 2864 2862 2861 2860 2859 2858 2857 2855 2854 2852 2851 2849 2847 2846 2843 2842
2854 2856 2857 2857 2857 2857 2858 2858 2858 2857 2856 2855 2855 2854 2854 2855 2855 2855 2855 2855 2855 2856 2856 2857 2857 2858 2859 2860 2861 2861 2862 2862 2862 2862 2862 2863 2864 2867 2869 2869 2869 2869 2871 2873 2874 2875 2874 2874 2875 2875 2876 2876 2876 2876 2876 2875 2875 2874 2873 2873 2872 2871 2871 2870 2868 2867 2866 2865 2863 2862 2860 2859 2857 2856 2855 2854 2852 2851 2850 2848 2846 2844 2842 2840 2838 2836
2849 2851 2852 2852 2853 2853 2854 2855 2855 2854 2853 2852 2852 2851 2852 2852 2852 2852 2852 2852 2852 2852 2853 2853 2854 2854 2855 2856 2857 2858 2858 2859 2860 2860 2859 2860 2861 2863 2865 2866 2866 2866 2867 2869 2871 2871 2871 2871 2871 2872 2872 2872 2872 2872 2872 2872 2871 2871 2870 2869 2868 2867 2867 2866 2865 2864 2863 2861 2860 2858 2857 2855 2854 2852 2851 2850 2848 2847 2845 2844 2842 2840 2837 2835 2832 2830
2843 2845 2847 2848 2848 2849 2850 2851 2851 2851 2850 2849 2848 2848 2848 2848 2848 2848 2848 2848 2848 2849 2849 2850 2850 2850 2851 2852 2853 2854 2856 2857 2857 2857 2857 2857 2858 2860 2862 2862 2863 2863 2864 2866 2867 2867 2867 2867 2867 2868 2868 2869 2869 2869 2869 2868 2867 2867 2866 2865 2865 2864 2863 2862 2861 2860 2859 2858 2856 2855 2853 2851 2850 2848 2847 2846 2844 2843 2841 2839 2837 2835 2832 2830 2827 2825
2839 2839 2841 2842 2844 2844 2845 2846 2847 2847 2847 2846 2845 2845 2845 2845 2844 2844 2844 2844 2845 2845 2846 2846 2846 2847 2847 2849 2850 2852 2853 2854 2854 2854 2854 2854 2855 2856 2858 2859 2860 2860 2861 2862 2863 2863 2863 2863 2864 2865 2865 2865 2866 2866 2865 2864 2864 2863 2862 2862 2861 2860 2859 2858 2857 2857 2855 2854 2852 2851 2849 2847 2846 2845 2843 2842 2840 2838 2837 2835 2832 2830 2827 2825 2822 2819
2837 2836 2836 2837 2838 2839 2840 2841 2842 2843 2843 2843 2842 2842 2841 2841 2841 2840 2840 2841 2841 2842 2842 2842 2842 2843 2844 2846 2847 2848 2850 2851 2851 2851 2851 2851 2851 2852 2854 2856 2857 2857 2857 2858 2859 2859 2859 2859 2860 2861 2862 2862 2862 2862 2861 2861 2860 2859 2858 2858 2857 2857 2856 2855 2854 2853 2852 2850 2849 2847 2845 2844 2842 2841 2839 2837 2836 2834 2832 2830 2828 2825 2822 2820 2816 2813
2834 2834 2833 2832 2832 2833 2835 2836 2837 2838 2839 2839 2839 2839 2838 2837 2837 2837 2836 2837 2838 2839 2838 2839 2839 2840 2841 2842 2844 2845 2847 2847 2847 2848 2848 2848 2848 2849 2851 2852 2853 2853 2853 2854 2854 2855 2855 2855 2856 2857 2858 2858 2858 2858 2857 2857 2856 2855 2855 2854 2853 2853 2852 2851 2850 2849 2848 2846 2845 2843 2842 2840 2838 2837 2835 2833 2832 2830 2828 2826 2823 2820 2817 2814 2811 2808
2831 2831 2831 2831 2829 2829 2829 2830 2832 2833 2834 2835 2835 2835 2835 2833 2833 2833 2834 2835 2836 2836 2835 2835 2836 2837 2838 2839 2841 2842 2843 2843 2844 2845 2846 2845 2845 2845 2848 2849 2849 2849 2850 2849 2850 2850 2851 2852 2853 2853 2854 2854 2854 2854 2853 2853 2852 2852 2851 2850 2850 2849 2848 2847 2847 2845 2844 2843 2841 2839 2838 2836 2834 2833 2831 2829 2827 2826 2823 2821 2819 2816 2812 2809 2807 2803
2827 2827 2827 2827 2827 2827 2826 2825 2826 2828 2830 2831 2831 2831 2831 2830 2830 2831 2832 2833 2832 2832 2832 2832 2833 2834 2835 2836 2837 2838 2838 2840 2842 2843 2843 2842 2842 2842 2844 2845 2845 2845 2846 2846 2845 2845 2846 2848 2849 2850 2850 2850 2850 2850 2849 2849 2848 2847 2847 2847 2846 2845 2845 2844 2843 2842 2841 2839 2837 2836 2834 2832 2831 2829 2827 2825 2823 2822 2819 2817 2815 2811 2808 2805 2802 2799
2824 2824 2824 2824 2824 2824 2823 2823 2822 2823 2824 2826 2826 2827 2827 2826 2826 2827 2828 2829 2829 2828 2829 2829 2830 2831 2832 2833 2834 2834 2835 2837 2840 2840 2840 2839 2839 2839 2841 2841 2841 2841 2842 2842 2841 2841 2841 2843 2845 2846 2846 2846 2846 2845 2845 2844 2844 2843 2843 2842 2842 2842 2841 2840 2839 2838 2837 2835 2834 2832 2830 2828 2827 2825 2823 2821 2819 2817 2815 2813 2811 2807 2803 2800 2797 2794
2820 2820 2820 2821 2821 2821 2820 2820 2820 2820 2820 2821 2822 2822 2822 2823 2823 2823 2824 2825 2825 2826 2826 2827 2828 2828 2829 2830 2830 2831 2832 2835 2837 2837 2837 2837 2836 2836 2837 2837 2837 2837 2838 2837 2837 2837 2837 2838 2840 2842 2842 2842 2841 2841 2841 2840 2840 2839 2838 2838 2837 2837 2837 2837 2835 2834 2833 2832 2830 2828 2826 2824 2822 2821 2819 2817 2815 2813 2812 2809 2807 2803 2800 2796 2792 2789
2817 2817 2817 2817 2817 2817 2817 2817 2817 2817 2817 2817 2817 2817 2818 2819 2819 2820 2820 2821 2822 2823 2823 2824 2825 2826 2827 2827 2828 2829 2831 2833 2834 2834 2834 2833 2833 2833 2833 2834 2834 2834 2834 2834 2833 2833 2833 2833 2835 2837 2837 2837 2837 2836 2836 2836 2836 2835 2834 2834 2833 2833 2833 2832 2832 2830 2829 2827 2826 2824 2822 2820 2818 2817 2815 2813 2812 2810 2807 2805 2803 2800 2796 2792 2788 2785
2814 2814 2814 2814 2814 2813 2813 2813 2813 2813 2813 2813 2813 2813 2813 2815 2816 2817 2817 2817 2818 2820 2821 2822 2823 2823 2824 2825 2825 2827 2828 2830 2831 2831 2831 2830 2830 2830 2830 2830 2830 2830 2830 2830 2830 2829 2829 2829 2830 2831 2832 2832 2832 2832 2832 2832 2832 2831 2831 2830 2829 2829 2829 2829 2827 2826 2825 2823 2821 2819 2817 2816 2814 2812 2811 2809 2807 2805 2803 2801 2798 2796 2792 2789 2785 2781
2811 2811 2811 2811 2811 2810 2810 2810 2810 2810 2810 2809 2809 2809 2810 2811 2812 2813 2814 2815 2816 2817 2818 2819 2820 2821 2822 2822 2823 2824 2825 2827 2828 2828 2827 2827 2827 2826 2826 2827 2827 2827 2827 2827 2826 2826 2825 2825 2826 2827 2826 2827 2827 2828 2828 2828 2828 2827 2827 2826 2826 2825 2825 2824 2823 2822 2820 2818 2817 2815 2813 2811 2809 2808 2806 2804 2802 2801 2798 2796 2794 2791 2788 2785 2782 2778
2807 2807 2808 2807 2807 2807 2807 2807 2807 2806 2806 2805 2805 2805 2806 2807 2808 2810 2812 2812 2814 2815 2816 2817 2818 2818 2819 2819 2820 2821 2822 2824 2825 2825 2824 2824 2823 2823 2823 2823 2823 2824 2824 2823 2823 2822 2822 2822 2822 2822 2822 2822 2822 2822 2824 2824 2824 2823 2823 2822 2822 2821 2821 2820 2819 2818 2816 2814 2812 2810 2808 2807 2805 2803 2801 2800 2798 2796 2793 2792 2789 2787 2784 2782 2779 2776
2803 2803 2804 2804 2803 2803 2803 2803 2802 2802 2802 2802 2802 2802 2802 2804 2806 2807 2809 2811 2812 2813 2814 2815 2815 2816 2816 2816 2817 2818 2819 2821 2822 2822 2822 2821 2820 2820 2820 2820 2820 2821 2821 2820 2820 2819 2819 2818 2818 2818 2818 2818 2818 2818 2819 2820 2820 2819 2819 2818 2818 2817 2817 2816 2815 2813 2812 2809 2807 2806 2804 2802 2800 2798 2797 2795 2793 2791 2789 2787 2785 2782 2780 2777 2775 2773
2800 2800 2800 2800 2799 2799 2799 2799 2798 2798 2798 2798 2799 2799 2800 2802 2803 2805 2807 2809 2810 2811 2812 2812 2812 2813 2813 2814 2815 2816 2817 2818 2819 2819 2818 2817 2817 2817 2817 2817 2817 2817 2817 2817 2817 2816 2815 2815 2814 2815 2815 2815 2815 2815 2815 2815 2815 2815 2815 2814 2814 2813 2813 2812 2811 2809 2807 2805 2803 2802 2800 2798 2796 2794 2792 2791 2789 2787 2784 2782 2780 2778 2776 2773 2771 2769
2796 2796 2796 2796 2796 2795 2795 2795 2795 2795 2795 2795 2796 2797 2798 2800 2802 2803 2805 2807 2808 2808 2809 2809 2810 2810 2811 2812 2813 2813 2814 2815 2816 2816 2815 2815 2814 2814 2813 2813 2814 2814 2814 2814 2813 2813 2812 2812 2811 2811 2811 2811 2811 2811 2812 2812 2811 2811 2810 2810 2809 2809 2809 2808 2807 2805 2803 2802 2799 2798 2796 2795 2793 2791 2788 2787 2784 2782 2780 2777 2775 2773 2771 2768 2766 2764
2793 2793 2792 2792 2792 2792 2791 2791 2792 2792 2792 2792 2793 2794 2796 2797 2799 2801 2802 2804 2805 2806 2807 2807 2808 2808 2809 2809 2810 2811 2812 2812 2812 2813 2813 2812 2812 2811 2811 2811 2811 2811 2811 2810 2810 2809 2809 2808 2808 2808 2808 2807 2807 2807 2807 2807 2807 2807 2806 2805 2804 2804 2805 2804 2802 2801 2799 2798 2796 2794 2792 2791 2789 2787 2785 2782 2781 2778 2776 2773 2771 2769 2767 2764 2761 2758
2789 2789 2789 2789 2789 2789 2788 2789 2789 2789 2790 2790 2791 2792 2793 2794 2796 2798 2800 2801 2802 2803 2804 2805 2805 2806 2806 2807 2807 2808 2809 2809 2810 2810 2810 2810 2809 2809 2808 2808 2807 2807 2807 2807 2806 2806 2806 2805 2805 2805 2804 2804 2804 2803 2803 2803 2804 2803 2802 2801 2800 2800 2800 2799 2798 2797 2796 2794 2793 2791 2789 2787 2785 2783 2781 2779 2777 2775 2773 2770 2767 2765 2763 2761 2758 2755
2786 2786 2787 2787 2787 2786 2786 2786 2787 2787 2787 2788 2789 2789 2791 2792 2794 2796 2797 2798 2799 2800 2801 2802 2803 2803 2803 2804 2805 2806 2806 2807 2807 2807 2807 2807 2807 2806 2805 2805 2805 2805 2804 2804 2803 2802 2802 2802 2802 2802 2801 2801 2800 2799 2799 2799 2800 2800 2799 2797 2796 2795 2794 2794 2794 2794 2792 2790 2789 2788 2786 2783 2781 2779 2777 2775 2773 2772 2769 2767 2764 2762 2759 2757 2755 2752
2783 2783 2784 2784 2784 2784 2784 2784 2784 2785 2785 2786 2787 2788 2789 2791 2792 2794 2795 2796 2797 2797 2799 2799 2800 2800 2800 2801 2802 2803 2804 2804 2804 2804 2804 2804 2804 2803 2803 2802 2802 2802 2801 2801 2800 2799 2799 2799 2799 2798 2798 2798 2797 2796 2795 2795 2796 2796 2795 2794 2793 2791 2789 2789 2790 2790 2788 2787 2785 2784 2782 2780 2777 2775 2773 2771 2769 2767 2766 2763 2761 2759 2757 2754 2751 2749
2780 2781 2781 2782 2782 2782 2782 2782 2782 2783 2784 2784 2786 2787 2788 2789 2790 2792 2792 2793 2794 2795 2796 2797 2797 2797 2798 2798 2799 2800 2801 2802 2802 2802 2801 2801 2801 2800 2800 2800 2799 2799 2798 2797 2797 2797 2796 2796 2796 2795 2795 2794 2793 2792 2792 2792 2792 2792 2791 2791 2790 2788 2786 2785 2785 2785 2784 2783 2782 2781 2779 2776 2774 2771 2769 2767 2766 2764 2762 2759 2757 2755 2753 2751 2748 2746
2778 2778 2779 2779 2779 2779 2779 2780 2781 2781 2782 2783 2784 2785 2786 2787 2788 2789 2790 2791 2792 2793 2794 2794 2795 2795 2795 2796 2797 2798 2798 2799 2799 2799 2798 2798 2798 2797 2797 2797 2797 2796 2795 2795 2794 2794 2793 2793 2792 2792 2792 2791 2790 2789 2788 2788 2788 2788 2788 2787 2786 2785 2783 2782 2782 2781 2780 2779 2778 2777 2775 2773 2770 2767 2765 2763 2761 2760 2758 2756 2753 2751 2749 2748 2745 2743
2775 2776 2776 2777 2777 2777 2777 2778 2779 2780 2781 2782 2783 2784 2785 2786 2787 2787 2788 2789 2790 2791 2791 2792 2792 2792 2792 2793 2794 2795 2796 2796 2796 2796 2796 2796 2795 2795 2794 2794 2794 2793 2792 2792 2791 2791 2790 2790 2789 2789 2788 2787 2786 2786 2785 2785 2785 2784 2784 2784 2783 2781 2780 2779 2778 2778 2777 2776 2774 2773 2772 2769 2767 2763 2761 2758 2757 2755 2754 2752 2750 2748 2746 2744 2742 2739
2773 2773 2774 2774 2775 2775 2776 2777 2778 2779 2780 2781 2782 2782 2783 2784 2785 2786 2787 2787 2788 2789 2789 2789 2789 2789 2790 2791 2792 2792 2792 2792 2793 2793 2793 2793 2792 2792 2792 2791 2791 2790 2790 2789 2788 2787 2787 2787 2786 2786 2785 2784 2783 2782 2782 2782 2782 2781 2781 2780 2779 2777 2776 2775 2775 2775 2774 2773 2771 2769 2768 2766 2763 2760 2757 2754 2752 2751 2749 2748 2747 2745 2742 2740 2737 2735
2771 2771 2772 2772 2772 2773 2774 2775 2776 2777 2778 2779 2780 2781 2782 2783 2783 2784 2785 2786 2786 2787 2787 2787 2787 2787 2787 2788 2789 2789 2790 2790 2790 2790 2790 2790 2790 2789 2789 2788 2788 2787 2787 2786 2785 2785 2784 2783 2783 2782 2782 2781 2780 2779 2779 2780 2779 2779 2777 2777 2775 2774 2773 2772 2772 2772 2771 2770 2768 2766 2764 2762 2759 2756 2753 2750 2747 2746 2745 2744 2743 2741 2739 2737 2734 2732
2768 2769 2769 2770 2771 2771 2772 2773 2774 2775 2777 2778 2779 2780 2780 2781 2782 2782 2783 2784 2784 2784 2784 2784 2784 2784 2785 2785 2786 2787 2787 2787 2787 2787 2787 2787 2787 2787 2786 2786 2785 2785 2784 2783 2782 2781 2781 2780 2779 2779 2779 2778 2778 2777 2777 2777 2777 2776 2775 2773 2772 2771 2770 2769 2769 2769 2768 2766 2765 2763 2761 2759 2756 2753 2750 2746 2743 2741 2740 2739 2738 2737 2736 2733 2731 2728
2766 2766 2767 2768 2769 2769 2770 2771 2772 2773 2775 2776 2777 2778 2778 2779 2780 2780 2781 2782 2782 2782 2782 2782 2782 2782 2782 2782 2783 2784 2784 2784 2784 2784 2784 2784 2784 2783 2783 2782 2782 2782 2781 2780 2779 2778 2777 2776 2776 2776 2776 2776 2776 2775 2774 2774 2774 2773 2772 2770 2769 2768 2767 2766 2765 2765 2764 2762 2761 2759 2757 2755 2753 2751 2747 2743 2740 2737 2735 2734 2734 2733 2732 2730 2727 2725
2763 2764 2765 2766 2767 2767 2768 2769 2770 2771 2772 2773 2774 2775 2776 2777 2777 2778 2778 2779 2779 2779 2779 2779 2779 2779 2779 2780 2780 2781 2781 2781 2781 2781 2781 2781 2781 2780 2779 2779 2779 2778 2777 2776 2775 2774 2774 2773 2772 2772 2772 2774 2774 2773 2772 2771 2771 2770 2769 2767 2766 2765 2764 2762 2762 2761 2760 2758 2757 2755 2753 2752 2749 2747 2744 2741 2737 2733 2731 2730 2729 2729 2728 2727 2724 2722